Wind_Speed
22 23 25 23 24 25 23 21 19 19 17 15 14 13 12 12 11 11 11 11 12 12 10 10 11 9 9 8 9 6 9 10 12 13 13 15 15 14 16 13 17 18 17
24 25 25 24 23 22 20 18 17 16 15 13 12 11 11 10 10 11 11 11 12 13 11 10 10 9 12 10 11 9 9 11 15 16 14 16 15 15 15 16 16 17 18
22 24 24 24 21 20 18 16 15 14 14 12 12 11 10 9 8 9 11 12 12 11 13 12 10 11 12 12 11 10 9 12 14 14 20 19 18 16 17 17 18 19 19
22 21 21 20 19 17 16 15 14 13 13 12 11 9 7 7 6 8 9 10 12 12 12 13 10 11 12 12 10 9 10 12 16 16 19 22 20 17 18 21 21 20 23
20 19 18 16 15 14 14 14 14 14 13 11 9 7 5 4 5 3 3 7 5 8 11 11 11 14 13 12 10 9 11 14 14 17 21 22 21 21 23 24 26 26 25
18 17 16 15 15 15 15 15 13 13 12 10 10 5 4 4 4 4 4 3 3 9 7 10 12 10 12 11 12 9 11 16 11 20 23 23 24 24 25 27 29 32 31
18 17 16 15 16 16 16 16 14 13 13 9 7 6 4 2 2 1 4 6 6 8 10 11 8 11 12 12 11 8 11 11 9 17 23 24 24 25 27 28 30 39 38
17 15 15 15 15 15 15 15 14 12 11 9 7 5 3 2 1 2 5 5 7 8 8 9 10 10 11 12 13 13 15 13 10 12 18 19 21 23 24 30 38 36 33
17 12 12 17 15 16 15 15 13 11 10 7 6 5 4 4 3 3 5 7 6 7 10 10 9 10 10 10 12 16 18 17 14 14 15 14 20 24 29 29 35 38 33
14 14 14 13 14 15 15 14 11 10 8 7 6 5 2 4 4 6 5 6 7 7 9 10 11 8 15 17 15 18 20 19 17 17 17 16 20 21 23 27 32 35 34
16 15 15 14 13 15 14 12 10 10 9 8 7 5 5 3 3 5 5 5 6 9 10 10 10 10 15 13 10 16 21 20 17 19 20 20 22 24 24 24 32 27 32
17 16 16 14 14 14 12 10 10 11 9 8 7 7 4 3 4 4 5 6 7 6 8 11 14 13 13 13 14 13 17 18 18 20 21 22 22 24 24 17 19 21 18
18 17 15 14 13 11 11 11 11 10 9 9 8 7 4 4 4 4 7 7 9 10 14 16 14 15 14 14 14 17 18 18 19 20 21 22 19 20 19 22 21 17 13
17 15 14 13 11 10 7 8 9 11 11 9 10 9 6 8 5 9 9 12 12 17 19 18 17 15 16 19 18 17 18 18 19 20 20 22 22 25 20 18 16 13 11
17 16 12 9 10 7 9 7 6 8 8 9 9 10 9 10 8 11 12 14 18 20 21 20 17 21 26 25 20 16 17 19 20 22 22 22 21 22 18 15 13 13 10
15 14 11 12 10 11 9 8 6 5 9 11 9 11 9 5 9 13 13 17 18 20 20 17 19 21 19 16 11 19 19 21 22 22 22 23 19 17 15 14 14 14 12
14 15 11 11 16 14 10 9 8 10 10 12 11 7 4 8 10 14 13 15 22 18 15 15 16 15 12 14 15 18 18 17 16 17 18 17 17 16 16 15 15 15 16
14 13 11 14 11 14 10 10 11 9 8 9 9 8 11 11 11 16 16 20 20 16 14 13 13 12 10 10 12 13 13 16 19 16 18 17 16 15 15 15 16 16 17
14 14 10 13 13 12 11 12 8 11 12 9 12 13 13 12 14 14 16 14 13 9 9 11 11 10 9 12 13 13 15 13 15 19 16 15 14 15 15 16 16 18 18
12 12 7 12 10 12 12 12 13 13 12 11 9 11 15 15 16 16 16 14 11 10 9 11 11 13 11 10 9 11 14 14 13 14 14 14 15 15 16 16 17 18 19
12 13 6 12 10 11 12 11 12 11 13 15 13 8 9 11 11 12 8 7 8 8 8 9 10 11 11 11 11 11 13 14 15 15 15 15 15 16 17 17 18 19 21
16 14 11 9 11 9 10 11 10 9 9 14 14 10 14 13 9 7 7 9 8 8 7 5 8 8 11 12 11 13 13 14 16 16 17 18 18 19 19 20 20 22 23
7 14 13 10 10 10 8 9 9 9 9 10 13 11 11 7 7 8 7 5 4 4 5 6 6 7 7 7 8 9 12 14 15 17 18 19 19 20 22 23 24 25 27
11 7 12 11 15 10 11 5 10 6 5 10 14 12 11 6 1 4 5 5 4 3 3 3 4 5 5 7 10 12 15 15 14 15 17 18 20 22 23 24 26 27 29
23 21 16 14 17 14 15 14 13 13 10 14 16 16 15 12 10 11 9 10 8 5 6 10 11 13 15 17 17 17 18 17 20 21 19 16 19 22 24 25 26 28 29
13 15 17 19 20 17 17 16 15 15 14 14 16 15 16 15 15 14 16 16 16 12 11 11 15 15 15 15 17 21 25 26 25 25 27 30 27 24 24 26 28 30 33
Wind_Direction
141 149 150 153 150 143 149 152 146 147 152 160 169 177 185 188 190 199 201 199 214 223 215 216 223 210 199 224 195 204 186 180 169 158 162 163 165 159 167 164 166 171 167
137 136 136 135 140 142 139 141 144 149 157 169 175 177 181 183 193 206 210 217 216 219 213 206 216 202 202 194 210 222 191 180 180 161 169 158 158 159 168 163 161 163 164
134 132 134 137 138 141 143 145 150 153 156 161 165 167 174 186 208 225 230 231 226 220 221 193 210 202 199 199 200 211 191 177 178 176 174 166 159 167 160 158 162 161 159
135 136 135 138 142 143 147 148 149 151 150 156 159 168 186 197 227 250 241 233 228 220 218 189 206 219 201 198 201 194 184 172 170 191 179 173 177 171 175 167 158 156 157
138 140 143 147 149 151 150 147 147 148 153 156 165 172 179 199 204 231 219 217 201 186 184 194 198 211 199 190 192 187 178 168 187 170 174 172 174 171 175 172 162 159 164
141 145 149 152 153 153 151 153 152 152 156 164 172 162 149 182 228 239 230 197 183 170 171 185 205 189 192 194 185 189 169 180 181 174 172 178 174 173 172 174 165 161 150
138 140 144 149 154 157 159 148 152 159 160 151 145 142 114 167 210 216 207 189 183 177 184 173 158 196 194 198 193 206 182 187 187 185 184 182 178 178 175 175 168 164 166
140 141 144 141 151 153 154 155 162 159 168 152 148 132 114 88 131 175 174 166 169 183 180 165 188 185 185 198 194 186 170 169 184 189 189 187 183 182 180 172 175 174 165
136 132 153 148 155 155 159 159 162 165 157 154 137 116 114 101 94 144 150 142 132 151 167 155 172 169 186 154 165 171 167 167 167 175 180 184 181 178 181 182 176 169 164
140 152 147 154 149 154 156 163 156 158 152 155 127 117 144 101 111 139 142 156 159 163 166 161 160 155 144 152 178 171 166 167 170 161 161 167 176 180 185 186 180 178 172
148 141 144 144 148 158 159 167 166 170 168 157 134 124 137 91 121 130 157 164 166 166 166 166 168 159 156 164 172 177 166 163 159 155 158 165 174 180 175 187 183 191 180
150 134 147 156 159 156 165 167 172 178 168 161 147 131 129 120 111 110 145 154 159 176 179 165 154 155 162 157 160 162 167 162 157 158 161 169 175 180 181 176 178 166 165
135 138 142 151 154 161 171 178 177 180 182 178 175 160 159 142 116 102 142 148 148 145 141 140 140 143 146 147 147 152 162 164 160 157 159 165 172 162 156 149 160 170 188
136 140 146 149 151 156 160 171 178 187 188 182 183 161 181 157 143 138 136 139 141 140 129 128 122 126 137 144 147 149 151 152 153 155 156 152 155 160 160 162 165 167 186
140 137 140 138 143 146 141 121 141 169 168 160 173 160 167 163 158 152 139 140 153 139 131 125 124 129 128 127 125 132 145 145 144 142 145 149 162 166 172 170 177 177 188
152 157 145 142 141 132 122 118 125 138 153 152 150 153 170 176 150 149 150 155 149 129 128 127 131 131 130 138 141 140 139 146 149 154 156 163 166 171 177 185 188 199 196
167 142 146 140 146 140 130 110 117 129 149 168 174 179 155 152 139 141 144 148 142 129 141 142 146 147 153 132 143 146 157 159 154 156 158 169 177 184 184 193 198 206 212
160 150 171 137 136 147 138 132 124 128 129 139 147 148 135 135 137 143 145 150 147 145 145 154 156 161 166 155 151 159 152 162 170 169 175 181 184 192 198 206 211 216 220
155 167 162 135 134 130 138 147 139 134 126 135 139 143 142 139 142 147 151 156 164 163 166 162 172 178 174 156 170 168 180 160 178 184 186 194 201 208 215 220 223 226 229
164 174 154 142 141 131 150 143 151 130 130 124 133 156 153 151 148 152 162 160 171 174 174 178 185 182 182 179 187 183 190 194 192 197 204 210 216 220 225 229 231 233 236
165 177 181 156 151 145 134 135 139 145 147 147 131 124 141 138 155 156 152 150 153 181 180 195 200 202 204 206 212 195 203 212 208 215 217 221 225 231 234 236 240 243 245
166 166 177 171 150 153 146 140 142 144 135 136 128 106 128 142 146 157 183 204 186 186 181 214 206 201 203 211 214 219 221 223 227 227 229 232 235 239 242 246 249 250 252
144 160 176 178 149 139 154 154 150 146 146 155 141 138 150 179 204 158 153 162 175 191 197 190 201 216 211 223 230 236 239 239 240 238 237 240 243 246 248 250 252 255 256
162 130 132 133 134 152 172 170 139 134 110 118 134 136 147 150 126 107 109 142 163 183 209 225 235 240 243 230 228 227 233 237 245 248 248 250 252 254 254 256 258 260 262
167 174 171 157 154 141 142 149 146 161 143 131 114 123 133 141 169 175 168 138 134 148 160 199 210 222 221 229 236 232 234 240 242 247 251 260 259 261 261 263 265 266 266
159 158 161 164 167 163 162 163 160 162 172 163 165 164 168 175 179 184 188 190 191 185 187 197 213 223 231 237 238 244 248 246 247 249 254 254 258 264 265 266 267 267 268
Height
1389 1391 1394 1398 1404 1409 1413 1416 1420 1423 1427 1432 1435 1438 1440 1442 1444 1445 1447 1449 1451 1451 1452 1454 1455 1456 1460 1460 1462 1462 1464 1466 1468 1470 1473 1475 1478 1481 1484 1488 1492 1496 1500
1391 1394 1398 1402 1407 1410 1415 1419 1421 1424 1428 1432 1435 1437 1439 1441 1443 1445 1446 1448 1448 1448 1450 1453 1454 1455 1457 1460 1461 1462 1464 1465 1468 1470 1472 1476 1480 1483 1485 1489 1493 1497 1501
1394 1397 1401 1405 1409 1413 1417 1420 1422 1425 1429 1432 1435 1437 1439 1441 1443 1444 1444 1444 1444 1446 1447 1449 1453 1454 1456 1458 1460 1461 1463 1465 1467 1471 1472 1476 1480 1483 1486 1490 1494 1498 1502
1396 1400 1403 1407 1411 1415 1418 1421 1423 1426 1429 1432 1435 1437 1439 1440 1441 1442 1441 1441 1441 1442 1444 1447 1451 1452 1455 1457 1459 1461 1463 1464 1466 1468 1471 1475 1479 1483 1487 1490 1494 1499 1503
1398 1401 1405 1410 1413 1416 1419 1421 1425 1427 1430 1433 1435 1437 1438 1439 1439 1439 1438 1439 1438 1441 1442 1446 1449 1451 1452 1456 1458 1460 1462 1464 1465 1467 1470 1474 1478 1482 1485 1489 1494 1500 1506
1400 1403 1407 1410 1414 1417 1420 1422 1426 1428 1431 1433 1434 1437 1437 1437 1438 1437 1437 1438 1439 1441 1443 1445 1447 1450 1452 1455 1457 1459 1461 1463 1465 1467 1470 1474 1478 1482 1486 1489 1494 1500 1507
1401 1405 1408 1411 1413 1416 1420 1423 1426 1429 1431 1434 1435 1437 1437 1436 1436 1436 1437 1438 1439 1441 1442 1445 1448 1449 1451 1454 1456 1458 1461 1464 1466 1468 1470 1474 1478 1482 1485 1490 1496 1500 1504
1402 1405 1409 1411 1414 1418 1421 1424 1427 1429 1432 1434 1436 1436 1436 1436 1436 1435 1436 1437 1438 1439 1441 1445 1448 1448 1450 1452 1455 1458 1462 1465 1467 1469 1473 1477 1481 1484 1488 1492 1496 1502 1510
1402 1406 1409 1412 1416 1419 1421 1425 1428 1430 1432 1434 1436 1436 1436 1435 1435 1436 1437 1438 1439 1440 1442 1444 1446 1448 1450 1452 1456 1458 1460 1464 1466 1469 1474 1478 1482 1485 1489 1493 1498 1504 1510
1404 1407 1409 1413 1415 1419 1422 1426 1428 1431 1434 1436 1436 1436 1436 1436 1436 1436 1437 1437 1438 1439 1441 1444 1446 1448 1451 1454 1456 1458 1461 1464 1467 1470 1475 1480 1484 1488 1492 1497 1500 1505 1509
1404 1407 1411 1415 1418 1420 1424 1426 1429 1432 1434 1435 1436 1436 1436 1436 1436 1437 1437 1437 1439 1441 1442 1444 1447 1450 1452 1455 1457 1460 1463 1466 1469 1472 1476 1481 1486 1491 1495 1498 1503 1507 1511
1405 1409 1413 1416 1419 1422 1425 1427 1429 1431 1433 1435 1436 1437 1436 1437 1437 1437 1438 1439 1440 1441 1442 1444 1447 1450 1453 1456 1459 1462 1465 1468 1471 1474 1479 1483 1487 1493 1498 1502 1507 1513 1518
1407 1412 1414 1417 1421 1423 1425 1426 1429 1432 1434 1435 1436 1437 1436 1437 1437 1438 1439 1440 1441 1443 1444 1446 1449 1451 1455 1458 1461 1464 1467 1470 1473 1477 1481 1486 1491 1497 1502 1507 1512 1515 1518
1409 1414 1416 1420 1421 1423 1424 1425 1428 1429 1431 1433 1435 1437 1437 1438 1439 1440 1441 1442 1444 1445 1447 1449 1452 1454 1457 1460 1464 1467 1470 1474 1477 1480 1485 1491 1496 1501 1505 1509 1512 1516 1519
1411 1415 1417 1420 1422 1423 1424 1426 1427 1428 1431 1433 1435 1437 1437 1438 1440 1442 1443 1445 1447 1448 1450 1453 1456 1458 1461 1464 1468 1471 1474 1477 1481 1485 1490 1495 1499 1503 1507 1511 1514 1517 1519
1413 1415 1417 1419 1422 1425 1426 1426 1429 1430 1432 1434 1436 1438 1439 1440 1441 1443 1445 1447 1450 1453 1456 1459 1461 1464 1466 1469 1471 1474 1479 1482 1485 1489 1494 1498 1501 1505 1508 1511 1514 1516 1518
1412 1415 1417 1419 1421 1424 1427 1428 1430 1432 1434 1436 1437 1439 1440 1441 1443 1445 1448 1451 1455 1458 1461 1464 1467 1470 1471 1473 1476 1478 1482 1485 1489 1492 1496 1500 1503 1505 1508 1511 1513 1515 1516
1413 1416 1416 1419 1422 1423 1427 1430 1432 1434 1436 1436 1438 1440 1442 1444 1446 1448 1451 1455 1458 1461 1464 1467 1470 1473 1475 1476 1479 1481 1485 1487 1490 1493 1496 1499 1502 1505 1507 1509 1510 1512 1513
1415 1416 1417 1419 1423 1425 1427 1431 1433 1436 1438 1438 1439 1442 1444 1446 1448 1451 1454 1458 1461 1464 1466 1469 1472 1474 1476 1478 1481 1483 1485 1488 1490 1494 1497 1499 1501 1503 1504 1506 1507 1509 1510
1415 1416 1417 1420 1424 1426 1429 1431 1434 1436 1439 1441 1444 1444 1445 1447 1449 1452 1456 1459 1463 1465 1467 1470 1472 1474 1477 1479 1481 1484 1487 1489 1492 1494 1496 1498 1500 1501 1502 1503 1504 1505 1505
1414 1419 1419 1421 1424 1425 1429 1432 1434 1437 1439 1441 1445 1446 1448 1451 1453 1456 1459 1461 1462 1466 1468 1470 1472 1474 1477 1479 1480 1483 1486 1487 1490 1493 1494 1496 1497 1498 1499 1500 1500 1501 1501
1413 1419 1422 1421 1424 1426 1429 1432 1436 1438 1440 1442 1445 1448 1451 1453 1457 1460 1462 1462 1464 1467 1468 1469 1470 1472 1474 1477 1479 1481 1483 1485 1487 1489 1491 1492 1493 1494 1495 1495 1496 1496 1496
1413 1417 1421 1421 1424 1427 1431 1433 1435 1438 1440 1442 1445 1448 1452 1454 1456 1459 1461 1464 1465 1467 1468 1470 1472 1474 1475 1477 1479 1480 1481 1482 1483 1485 1486 1487 1488 1489 1489 1489 1489 1489 1489
1412 1413 1416 1419 1422 1428 1432 1433 1434 1439 1437 1440 1445 1449 1453 1457 1458 1458 1460 1463 1466 1468 1469 1471 1472 1473 1475 1475 1475 1475 1475 1477 1480 1481 1482 1483 1483 1483 1484 1484 1483 1482 1482
1413 1416 1417 1419 1422 1425 1428 1430 1433 1436 1439 1442 1443 1446 1449 1450 1452 1454 1456 1459 1461 1461 1462 1464 1465 1466 1466 1466 1468 1469 1471 1473 1475 1475 1476 1477 1478 1478 1478 1477 1476 1476 1475
1415 1417 1419 1421 1423 1426 1428 1431 1434 1437 1439 1441 1442 1443 1445 1447 1450 1452 1455 1457 1458 1459 1459 1461 1462 1462 1463 1464 1465 1467 1467 1468 1469 1469 1470 1471 1471 1472 1472 1471 1470 1469 1467